Location: Saint-Palais-sur-Mer
(45.6429°N, 1.0859°W)
Time: 23:59:27
(UTC+01:00)

Tiros 1 despin weight - Pass Details

Date: 13 February 2026
Orbit: 556 x 593 km, 48.2° (Epoch: 13 March)

Event Time Altitude Azimuth Distance (km) Brightness Sun altitude
Rises 19:33:41 0° 261° (W) 2,729 ? -12.0°
Reaches altitude 10° 19:35:57 10° 264° (W) 1,835 ? -12.4°
Maximum altitude 19:40:07 70° 348° (NNW) 593 ? -13.1°
Enters shadow 19:42:49 21° 69° (ENE) 1,268 ? -13.6°
Drops below altitude 10° 19:44:19 10° 73° (ENE) 1,845 - -13.8°
Sets 19:46:36 0° 76° (ENE) 2,745 - -14.2°
